STARLINK-5877 (56354 NORAD) Tracking and Keplerian Element Data

This shows tracking and keplerian element data for the satellite.

Feedback or suggestion? Click here.




ElementValue
Catalog56354
NameSTARLINK-5877
Epoch Orbit181
Epoch Day127.00001157
Epoch Year2023
RAAN126.4752
Inclination97.664
Eccentricity0.0001449
Argument of Perigee92.4788
Mean Anonmoly239.8448
Mean Motion15.68250766
Decay Rate-0.00867731
L11 56354U 23058AP 23127.00001157 -.00867731 00000+0 -86282-2 0 9991
L22 56354 97.6640 126.4752 0001449 92.4788 239.8448 15.68250766 1814



Live tracking and technical data element details for STARLINK-5877 (NORAD 56354). STARLINK-5877 can be tracked NOW for your location showing map with azimuth and elevation plus other details from your city location.







IsCatalogInMostPopularTable: catalog: 56354, numindb: 3
Update: records affected: 1



GetName: 56354 STARLINK-5877

Hit Count: updated at: Sun, 04 Jun 2023 23:31:16 GMT